User: anonymous   Login
Location: Unspecified
(0.0000°N, 0.0000°E)
Time: 19:53:53
(UTC+00:00)
Language:

Nadezhda 2 - Orbit

View from above orbital plane
View from above orbital plane
View from above satellite
View from above satellite

Ground track
Ground track

The orbit data is extracted from the following two-line orbital elements,

1 20508U 90017A   17269.14885465  .00000043  00000-0  29451-4 0  9990
2 20508  82.9522 267.1957 0043262 322.0928 107.1214 13.74250421382968
Epoch (UTC): 26 September 2017 03:34:21
Eccentricity: 0.0043262
inclination: 82.9522°
perigee height: 952 km
apogee height: 1016 km
right ascension of ascending node: 267.1957°
argument of perigee: 322.0928°
revolutions per day: 13.74250421
mean anomaly at epoch: 107.1214°
orbit number at epoch: 38296

The dashed part of the orbit path shows where the satellite is in the earth's shadow,  

DLR